Vertical_Velocity
0 0 -0 -0 -0 0 0 -0 -1 -1 -1 -1 -1 -1 -2 -2 -2 -2 -1 -1 -2 -2 -3 -2 -3 -3 -4 -4 -5 -5 -4 -4 -4 -4 -5 -4 -5 -5 -5 -5 -5 -5 -6 -6 -8 -8 -7 -6 -5 -5 -5 -5 -5 -5 -5 -4 -4 -4 -4 -4 -4 -4 -4 -3 -2 -2 -3 -3 -3 -2 -0 0 0 -0 -1 -1 -1 -1 -2 -2 -3 -3 -5 -7 -7 -6 -3 -2 -1 -1 -1 -1 -1 -2 -3 -3 -2 -1 -0 -0 -1 -2 -2
-0 0 -0 -0 -0 0 0 -0 -1 -1 -0 -1 -1 -1 -2 -2 -3 -2 -2 -2 -3 -3 -4 -4 -4 -5 -5 -6 -6 -5 -5 -5 -4 -4 -5 -4 -4 -5 -5 -5 -5 -5 -5 -6 -8 -8 -7 -5 -5 -5 -5 -5 -5 -5 -5 -4 -4 -4 -4 -4 -4 -4 -4 -3 -2 -3 -4 -5 -5 -5 -3 -1 -0 0 0 -0 -1 -1 -1 -2 -2 -3 -3 -4 -6 -7 -7 -4 -2 -1 -1 -1 -1 -1 -2 -3 -2 -2 -2 -1 -1 -1 -2
-0 -0 -0 -0 -0 0 0 -0 -0 -0 0 -0 -1 -2 -2 -2 -3 -3 -3 -3 -4 -4 -5 -5 -5 -6 -6 -6 -6 -6 -5 -5 -5 -4 -4 -4 -4 -4 -4 -4 -4 -4 -4 -5 -7 -8 -7 -5 -5 -6 -5 -5 -5 -5 -5 -4 -4 -4 -4 -4 -4 -3 -3 -2 -2 -3 -4 -5 -5 -6 -5 -4 -3 -1 0 -0 -0 -0 -1 -1 -2 -3 -4 -4 -4 -6 -8 -6 -4 -3 -1 -1 -0 -0 -1 -2 -3 -4 -3 -2 -1 -1 -1
-0 -0 -0 -1 -1 -0 -0 -0 -0 -0 0 -0 -0 -1 -1 -2 -3 -3 -4 -4 -4 -5 -6 -6 -6 -7 -7 -7 -7 -6 -6 -5 -5 -5 -4 -4 -4 -4 -4 -4 -4 -4 -3 -4 -6 -8 -8 -5 -5 -5 -5 -5 -5 -5 -5 -4 -4 -4 -4 -4 -4 -3 -2 -1 -1 -2 -3 -4 -4 -5 -6 -6 -5 -4 -2 -1 -0 -0 -1 -1 -1 -2 -3 -4 -4 -4 -5 -6 -6 -5 -2 -1 -0 -0 -0 -1 -2 -3 -3 -2 -2 -1 -1
-0 -0 -1 -1 -1 -1 -0 -1 -1 -0 -0 -0 -1 -1 -1 -2 -3 -3 -4 -4 -5 -6 -6 -6 -7 -7 -7 -7 -7 -6 -6 -5 -5 -5 -5 -4 -4 -4 -4 -4 -4 -4 -3 -4 -5 -6 -8 -4 -4 -5 -5 -5 -5 -5 -5 -5 -4 -4 -5 -4 -4 -3 -2 -1 -1 -1 -2 -2 -3 -3 -5 -6 -6 -6 -5 -4 -2 -1 -1 -1 -1 -2 -3 -4 -4 -4 -4 -5 -7 -7 -4 -2 -1 -1 -1 -0 -0 -1 -2 -2 -2 -1 -0
-1 -1 -1 -1 -1 -1 -1 -1 -1 -1 -1 -1 -1 -1 -1 -2 -3 -4 -4 -4 -5 -6 -6 -6 -6 -7 -7 -7 -6 -6 -6 -6 -6 -5 -5 -5 -5 -5 -5 -4 -4 -4 -4 -4 -4 -5 -7 -4 -4 -5 -5 -5 -5 -5 -5 -5 -5 -5 -5 -5 -4 -3 -2 -1 -1 -1 -1 -1 -2 -3 -4 -4 -5 -6 -7 -7 -6 -4 -2 -1 -1 -1 -2 -3 -4 -4 -4 -4 -6 -7 -7 -5 -3 -2 -2 -1 -0 -0 -2 -3 -3 -2 -1
-1 -1 -1 -1 -1 -1 -1 -1 -1 -1 -1 -2 -2 -2 -2 -3 -3 -4 -4 -4 -5 -5 -5 -6 -6 -6 -6 -6 -6 -6 -6 -6 -6 -6 -5 -5 -5 -5 -5 -5 -4 -4 -4 -4 -4 -4 -6 -5 -4 -4 -4 -5 -5 -5 -5 -4 -4 -5 -5 -5 -5 -4 -3 -3 -2 -2 -2 -1 -1 -1 -2 -2 -3 -4 -6 -8 -9 -8 -5 -3 -1 -0 -0 -2 -3 -3 -4 -4 -4 -5 -8 -7 -6 -3 -1 -0 -0 -1 -1 -2 -3 -3 -2
-1 -1 -1 -1 -1 -1 -1 -1 -2 -2 -2 -2 -3 -3 -3 -3 -4 -4 -4 -4 -4 -5 -5 -5 -5 -6 -6 -6 -6 -6 -6 -5 -5 -6 -6 -5 -5 -6 -6 -5 -5 -5 -4 -4 -4 -4 -5 -5 -5 -5 -5 -5 -5 -6 -6 -5 -5 -5 -6 -6 -5 -5 -4 -4 -3 -3 -3 -3 -2 -2 -1 -1 -1 -2 -2 -5 -7 -9 -9 -6 -4 -1 0 -0 -1 -2 -4 -4 -3 -4 -5 -8 -8 -6 -4 -1 1 2 2 1 -0 -1 -2
-1 -1 -1 -1 -1 -1 -1 -2 -2 -2 -3 -3 -3 -3 -3 -4 -4 -4 -4 -4 -4 -5 -5 -5 -5 -5 -5 -6 -6 -6 -6 -6 -5 -5 -6 -6 -6 -6 -6 -6 -6 -5 -5 -5 -5 -5 -6 -6 -6 -6 -6 -6 -6 -6 -6 -6 -6 -6 -6 -6 -6 -5 -5 -4 -4 -4 -4 -4 -3 -3 -3 -2 -2 -1 -1 -2 -4 -5 -8 -9 -7 -5 -2 -0 0 -0 -2 -4 -4 -4 -4 -6 -8 -8 -7 -5 -3 -1 1 2 3 3 1
-1 -1 -1 -1 -1 -1 -1 -2 -2 -3 -3 -3 -3 -4 -4 -4 -4 -4 -5 -4 -5 -5 -5 -5 -5 -5 -5 -6 -6 -6 -6 -6 -6 -6 -5 -6 -6 -6 -6 -6 -6 -6 -6 -6 -6 -6 -6 -6 -7 -7 -7 -7 -7 -7 -7 -6 -6 -7 -7 -7 -6 -6 -5 -5 -5 -5 -5 -5 -5 -4 -4 -4 -3 -3 -2 -2 -2 -2 -3 -6 -8 -8 -7 -3 -1 -0 -0 -3 -4 -5 -5 -4 -5 -7 -8 -6 -5 -4 -2 -1 1 2 2
-1 -1 -0 -0 -0 -1 -1 -2 -2 -3 -3 -3 -3 -4 -4 -4 -4 -4 -4 -5 -5 -5 -5 -5 -5 -5 -5 -6 -6 -6 -6 -6 -6 -6 -5 -5 -5 -6 -6 -6 -6 -6 -6 -6 -7 -7 -7 -7 -8 -8 -8 -8 -8 -8 -8 -8 -7 -7 -7 -7 -7 -7 -6 -6 -6 -6 -5 -5 -5 -5 -5 -5 -4 -4 -4 -3 -2 -2 -2 -3 -4 -6 -8 -7 -5 -2 -1 -1 -3 -5 -7 -6 -5 -5 -7 -7 -6 -5 -3 -2 -1 -0 -0
-1 -0 -0 -0 -0 -0 -1 -1 -2 -2 -3 -3 -3 -3 -4 -4 -4 -5 -5 -5 -5 -5 -5 -5 -5 -5 -5 -5 -6 -6 -6 -6 -6 -5 -5 -5 -5 -5 -5 -6 -6 -6 -7 -7 -7 -8 -8 -9 -9 -9 -10 -10 -10 -10 -10 -9 -9 -8 -8 -8 -8 -7 -6 -7 -6 -6 -6 -6 -6 -6 -6 -6 -6 -6 -5 -5 -4 -3 -3 -2 -2 -3 -6 -8 -8 -6 -3 -1 -1 -3 -6 -6 -6 -5 -6 -7 -7 -6 -5 -4 -3 -2 -2
-1 -0 -0 -0 -0 -0 -1 -1 -2 -2 -2 -2 -2 -3 -3 -4 -4 -5 -5 -5 -5 -5 -5 -5 -5 -5 -5 -5 -5 -6 -6 -5 -5 -5 -5 -5 -5 -5 -5 -5 -6 -6 -6 -7 -7 -8 -9 -9 -9 -9 -10 -10 -11 -11 -11 -11 -10 -10 -9 -8 -8 -7 -6 -7 -6 -6 -6 -6 -7 -7 -7 -7 -7 -6 -6 -6 -5 -5 -4 -3 -2 -2 -2 -4 -7 -8 -7 -3 -1 -1 -3 -6 -6 -6 -5 -6 -7 -7 -7 -6 -4 -3 -2
-1 -1 -1 -1 -1 -1 -1 -1 -2 -2 -2 -2 -2 -2 -3 -3 -3 -4 -4 -5 -5 -6 -6 -6 -6 -6 -5 -5 -5 -5 -4 -4 -4 -4 -4 -4 -4 -4 -5 -5 -5 -6 -6 -6 -6 -7 -7 -8 -8 -8 -9 -9 -10 -10 -11 -11 -11 -11 -10 -9 -9 -8 -7 -7 -6 -6 -5 -6 -6 -7 -7 -7 -7 -7 -6 -6 -6 -6 -5 -5 -4 -3 -2 -2 -4 -6 -9 -7 -4 -2 -1 -3 -5 -7 -6 -5 -5 -6 -7 -7 -6 -5 -3
-1 -1 -1 -1 -1 -1 -1 -2 -2 -3 -2 -2 -2 -3 -3 -3 -3 -4 -4 -4 -5 -5 -6 -6 -6 -6 -6 -5 -5 -4 -3 -3 -3 -3 -3 -4 -4 -4 -5 -5 -5 -5 -5 -5 -5 -5 -5 -5 -6 -6 -7 -8 -8 -9 -10 -10 -10 -11 -11 -10 -10 -9 -8 -8 -7 -6 -5 -5 -6 -6 -6 -6 -6 -7 -7 -7 -7 -7 -7 -6 -5 -5 -3 -2 -2 -3 -5 -7 -6 -4 -1 -0 -2 -5 -7 -5 -4 -4 -5 -6 -6 -6 -5
-1 -1 -1 -1 -1 -2 -2 -2 -3 -3 -3 -3 -3 -3 -3 -3 -3 -4 -4 -4 -5 -5 -5 -6 -6 -6 -6 -6 -5 -5 -4 -3 -3 -3 -3 -3 -4 -4 -5 -5 -5 -5 -5 -5 -4 -4 -4 -4 -4 -5 -5 -6 -7 -8 -8 -9 -9 -10 -10 -10 -10 -10 -9 -10 -9 -8 -6 -6 -6 -6 -6 -6 -6 -7 -7 -7 -7 -7 -7 -7 -7 -6 -5 -4 -2 -1 -0 -3 -5 -6 -4 -1 -0 -1 -5 -6 -5 -4 -4 -5 -6 -7 -7
-1 -1 -2 -2 -2 -2 -2 -2 -3 -3 -3 -3 -3 -3 -3 -4 -4 -4 -4 -4 -5 -5 -5 -5 -6 -6 -6 -6 -5 -5 -5 -5 -4 -4 -3 -3 -4 -4 -4 -4 -4 -4 -5 -4 -4 -4 -4 -4 -4 -4 -4 -4 -5 -6 -7 -7 -8 -9 -9 -9 -10 -10 -9 -10 -10 -9 -7 -7 -6 -6 -6 -6 -6 -7 -7 -7 -7 -7 -6 -7 -7 -7 -6 -5 -4 -2 -0 -0 -2 -4 -6 -4 -2 -1 -1 -5 -6 -5 -4 -4 -5 -6 -7
-1 -2 -2 -2 -2 -2 -2 -2 -3 -3 -3 -3 -3 -4 -4 -4 -4 -4 -4 -4 -4 -5 -5 -5 -5 -5 -5 -5 -5 -5 -5 -5 -5 -5 -5 -4 -4 -4 -4 -4 -4 -4 -4 -4 -4 -4 -4 -4 -4 -4 -4 -4 -4 -5 -6 -6 -6 -7 -7 -8 -8 -8 -8 -9 -10 -9 -8 -7 -8 -7 -6 -5 -6 -7 -7 -6 -6 -5 -5 -6 -7 -7 -7 -6 -5 -4 -2 -1 -1 -2 -4 -6 -5 -2 -0 -1 -4 -6 -6 -5 -5 -6 -7
-2 -2 -2 -2 -2 -2 -3 -3 -3 -3 -3 -3 -4 -4 -4 -4 -5 -5 -5 -4 -4 -4 -4 -4 -4 -4 -4 -4 -5 -5 -5 -5 -5 -5 -5 -5 -5 -4 -4 -4 -4 -4 -4 -4 -4 -4 -4 -4 -3 -3 -4 -4 -4 -4 -5 -5 -5 -6 -6 -6 -7 -7 -6 -8 -8 -8 -7 -8 -8 -7 -6 -6 -6 -6 -6 -6 -5 -5 -5 -6 -6 -7 -7 -7 -6 -5 -5 -4 -3 -1 -1 -4 -5 -5 -2 -0 -2 -4 -6 -5 -5 -5 -6
-2 -2 -2 -2 -2 -2 -3 -3 -3 -3 -3 -3 -4 -4 -4 -5 -5 -5 -5 -4 -4 -4 -4 -4 -4 -4 -4 -4 -4 -4 -4 -5 -5 -5 -5 -5 -5 -5 -4 -5 -4 -4 -4 -4 -4 -4 -4 -4 -3 -3 -3 -3 -3 -3 -3 -4 -4 -4 -5 -5 -5 -5 -5 -6 -7 -6 -6 -7 -7 -7 -6 -6 -6 -6 -6 -5 -5 -6 -6 -6 -6 -6 -7 -8 -8 -7 -7 -7 -5 -3 -1 -0 -3 -5 -4 -1 -1 -2 -3 -4 -4 -4 -4
-2 -2 -2 -2 -2 -2 -3 -3 -3 -3 -3 -3 -4 -4 -4 -4 -4 -4 -4 -4 -4 -4 -4 -4 -4 -3 -3 -3 -3 -3 -4 -4 -4 -4 -5 -4 -4 -4 -4 -4 -4 -4 -4 -4 -4 -4 -4 -4 -4 -3 -3 -3 -3 -3 -3 -3 -3 -3 -3 -4 -4 -4 -4 -5 -5 -5 -5 -6 -7 -6 -7 -6 -5 -5 -6 -6 -6 -6 -5 -5 -5 -5 -6 -6 -7 -8 -8 -8 -6 -5 -3 -0 -0 -2 -4 -3 -1 -0 2 -0 -2 -2 -2
-2 -2 -2 -2 -2 -3 -3 -3 -3 -3 -3 -4 -4 -4 -4 -4 -4 -4 -4 -4 -4 -4 -4 -4 -4 -3 -3 -3 -3 -3 -3 -4 -4 -4 -4 -4 -4 -4 -4 -4 -4 -4 -4 -4 -3 -3 -3 -3 -3 -3 -3 -3 -3 -3 -3 -3 -3 -2 -2 -2 -3 -3 -3 -4 -4 -4 -4 -6 -6 -7 -7 -7 -7 -6 -6 -5 -6 -6 -5 -4 -4 -4 -5 -5 -6 -7 -8 -7 -7 -6 -5 -3 -1 -0 -3 -5 -4 -3 0 1 0 -0 -1
-3 -3 -3 -3 -3 -3 -3 -3 -3 -4 -4 -4 -4 -4 -5 -5 -4 -4 -4 -4 -4 -4 -4 -3 -3 -3 -4 -4 -4 -3 -3 -4 -4 -4 -4 -4 -4 -4 -3 -4 -4 -4 -4 -4 -3 -3 -3 -3 -3 -3 -3 -3 -3 -3 -3 -3 -3 -2 -2 -2 -2 -2 -3 -4 -4 -4 -4 -5 -6 -7 -7 -7 -7 -6 -5 -5 -6 -5 -4 -4 -4 -4 -5 -5 -6 -6 -7 -7 -8 -8 -7 -5 -3 -1 -1 -4 -6 -7 -5 -4 -2 -0 2
-3 -3 -3 -3 -3 -3 -4 -4 -4 -4 -4 -4 -5 -5 -5 -5 -4 -4 -4 -4 -4 -4 -4 -4 -4 -4 -3 -4 -4 -4 -3 -3 -3 -4 -4 -4 -3 -3 -3 -3 -3 -4 -4 -4 -3 -3 -2 -3 -3 -3 -2 -2 -3 -3 -3 -3 -3 -2 -2 -2 -2 -2 -3 -4 -4 -4 -4 -5 -6 -6 -6 -6 -6 -6 -6 -6 -6 -6 -5 -5 -5 -5 -5 -5 -5 -6 -6 -7 -8 -8 -7 -6 -5 -3 -2 -2 -5 -8 -8 -8 -6 -4 -0
-3 -3 -3 -3 -3 -3 -4 -4 -4 -4 -5 -5 -5 -5 -4 -4 -4 -4 -4 -4 -4 -4 -4 -4 -4 -4 -4 -3 -3 -3 -3 -2 -2 -2 -3 -3 -3 -3 -3 -3 -3 -3 -4 -3 -3 -3 -2 -2 -2 -2 -2 -1 -2 -2 -3 -3 -2 -2 -2 -2 -2 -2 -3 -4 -4 -4 -4 -5 -5 -6 -5 -6 -6 -6 -6 -5 -6 -6 -6 -5 -4 -4 -5 -5 -5 -6 -6 -6 -6 -6 -6 -7 -6 -5 -4 -1 -3 -6 -7 -8 -9 -9 -7
-3 -3 -3 -3 -3 -3 -3 -4 -4 -4 -5 -5 -5 -5 -4 -4 -4 -4 -4 -4 -4 -4 -4 -4 -4 -4 -4 -4 -3 -3 -3 -3 -2 -1 -1 -2 -3 -3 -2 -2 -2 -2 -3 -3 -3 -3 -3 -2 -2 -1 -2 -1 -1 -2 -2 -3 -2 -2 -2 -3 -3 -3 -3 -4 -4 -5 -4 -4 -5 -5 -5 -6 -6 -6 -6 -6 -7 -7 -6 -5 -4 -4 -4 -4 -5 -6 -6 -5 -5 -6 -6 -6 -6 -6 -5 -3 -1 -1 -4 -5 -7 -9 -12
-3 -3 -3 -3 -3 -3 -3 -4 -4 -4 -4 -4 -5 -5 -4 -3 -3 -3 -4 -4 -4 -4 -4 -4 -4 -3 -3 -4 -4 -4 -4 -3 -2 -2 -1 -1 -2 -3 -3 -2 -2 -2 -2 -2 -2 -3 -3 -3 -2 -1 -1 -1 -1 -2 -2 -3 -3 -3 -2 -3 -3 -3 -3 -4 -4 -4 -4 -4 -5 -6 -5 -5 -5 -6 -6 -6 -6 -6 -6 -5 -5 -5 -5 -4 -4 -5 -6 -6 -6 -6 -6 -6 -6 -5 -5 -4 -3 -2 -4 -4 -4 -5 -8
-3 -3 -3 -3 -3 -3 -3 -3 -4 -4 -4 -4 -4 -4 -4 -3 -3 -3 -3 -3 -3 -3 -3 -3 -3 -3 -3 -3 -3 -4 -4 -4 -3 -2 -2 -1 -2 -2 -3 -2 -2 -1 -1 -2 -2 -2 -2 -2 -2 -1 -0 -0 -1 -2 -2 -3 -3 -3 -3 -3 -3 -3 -3 -4 -4 -4 -4 -4 -5 -6 -6 -6 -6 -5 -5 -5 -5 -6 -6 -5 -5 -5 -5 -4 -5 -5 -6 -7 -6 -5 -5 -6 -6 -4 -3 -1 0 -0 -2 -5 -5 -2 -2
-2 -2 -2 -2 -2 -2 -3 -3 -3 -3 -3 -3 -3 -3 -4 -4 -3 -2 -2 -2 -2 -3 -3 -3 -3 -3 -3 -2 -2 -3 -4 -4 -3 -2 -2 -2 -2 -2 -3 -3 -2 -2 -1 -2 -2 -3 -2 -1 -2 -2 -2 -1 -1 -2 -3 -3 -3 -3 -3 -3 -3 -3 -3 -4 -4 -4 -4 -5 -5 -6 -6 -6 -6 -6 -6 -5 -5 -5 -7 -6 -5 -4 -4 -4 -4 -4 -5 -5 -5 -5 -5 -7 -7 -5 -4 -0 3 6 7 1 -3 -4 -3
-2 -2 -2 -2 -2 -2 -3 -3 -3 -3 -3 -3 -3 -2 -3 -3 -3 -3 -2 -2 -2 -2 -3 -3 -3 -2 -2 -2 -2 -2 -3 -4 -4 -3 -1 -1 -1 -1 -2 -2 -2 -2 -1 -1 -2 -2 -3 -2 -2 -2 -3 -2 -2 -2 -2 -3 -3 -3 -2 -3 -3 -3 -3 -3 -4 -4 -4 -4 -5 -5 -6 -7 -7 -7 -6 -5 -5 -5 -5 -5 -6 -6 -5 -4 -4 -3 -3 -5 -6 -5 -5 -5 -6 -7 -7 -4 -2 2 9 9 5 1 -2
-2 -2 -2 -2 -2 -2 -3 -3 -3 -3 -3 -3 -2 -2 -2 -3 -3 -3 -3 -2 -2 -2 -2 -2 -2 -2 -2 -2 -2 -1 -2 -3 -3 -3 -2 -1 -1 -1 -1 -1 -2 -2 -2 -2 -1 -1 -2 -2 -2 -2 -2 -2 -2 -2 -3 -3 -3 -4 -3 -3 -3 -4 -3 -3 -3 -3 -3 -3 -4 -5 -6 -7 -7 -8 -7 -6 -6 -6 -5 -5 -6 -6 -5 -5 -5 -4 -4 -5 -5 -6 -6 -4 -4 -6 -8 -8 -7 -4 3 9 14 16 13
-2 -2 -2 -2 -2 -2 -2 -2 -2 -3 -3 -3 -2 -2 -2 -2 -2 -2 -2 -2 -2 -2 -2 -2 -2 -2 -2 -1 -1 -1 -1 -2 -3 -3 -3 -2 -1 -1 -1 -2 -2 -2 -2 -1 -1 -1 -1 -1 -1 -1 -2 -2 -1 -1 -2 -3 -3 -4 -5 -4 -4 -4 -4 -4 -3 -3 -3 -3 -3 -4 -4 -6 -7 -8 -8 -7 -6 -6 -6 -6 -6 -6 -5 -5 -6 -6 -5 -4 -5 -6 -4 -3 -4 -4 -4 -8 -9 -10 -10 -9 -5 1 9
-2 -2 -2 -2 -3 -3 -2 -2 -2 -2 -2 -2 -2 -2 -1 -2 -2 -2 -1 -1 -2 -2 -2 -2 -2 -2 -2 -1 -1 -0 -0 -1 -2 -3 -2 -2 -2 -1 -1 -1 -2 -2 -2 -2 -1 -1 -1 -2 -1 -1 -1 -2 -1 -1 -1 -2 -3 -4 -5 -5 -5 -4 -5 -4 -4 -3 -3 -3 -3 -4 -4 -5 -6 -7 -8 -7 -6 -6 -6 -6 -6 -6 -6 -4 -5 -6 -6 -3 -4 -5 -5 -4 -3 -2 -1 -5 -8 -10 -12 -17 -21 -20 -12
-2 -2 -2 -2 -2 -3 -2 -2 -2 -2 -2 -2 -2 -2 -1 -1 -1 -1 -1 -1 -1 -1 -1 -1 -1 -1 -1 -1 -1 -0 -0 -1 -2 -2 -2 -2 -2 -2 -1 -2 -2 -2 -1 -2 -2 -2 -1 -1 -2 -2 -2 -2 -2 -1 -1 -2 -3 -3 -4 -5 -5 -4 -4 -4 -4 -3 -3 -3 -4 -4 -4 -5 -5 -6 -8 -8 -7 -7 -6 -6 -6 -6 -6 -6 -6 -6 -6 -4 -3 -2 -4 -5 -4 -3 0 1 2 3 5 0 -11 -23 -27
-2 -2 -2 -2 -2 -2 -2 -2 -2 -2 -2 -2 -2 -2 -2 -1 -1 -1 -1 -1 -0 0 0 -0 -0 -0 -0 -1 -1 -0 -0 -0 -1 -2 -2 -1 -1 -1 -2 -2 -2 -2 -2 -1 -2 -2 -2 -2 -2 -2 -2 -2 -2 -2 -2 -2 -2 -3 -4 -4 -4 -4 -4 -3 -3 -3 -4 -4 -4 -5 -5 -5 -5 -6 -7 -8 -8 -7 -7 -7 -6 -6 -6 -5 -5 -5 -4 -2 -1 -2 -3 -3 -3 -1 1 5 7 11 17 16 8 -5 -21
-2 -2 -2 -2 -2 -2 -2 -2 -2 -2 -2 -2 -2 -2 -2 -2 -1 -1 -1 -0 -0 0 0 0 0 -0 -0 0 -0 -0 -0 -0 0 -0 -1 -2 -1 -1 -2 -2 -2 -2 -2 -2 -2 -1 -1 -2 -2 -2 -2 -2 -2 -2 -2 -2 -2 -2 -3 -4 -5 -5 -5 -5 -5 -5 -5 -5 -5 -5 -6 -6 -6 -6 -6 -7 -7 -7 -7 -7 -6 -6 -6 -6 -5 -5 -4 -3 -3 -3 -4 -4 -4 -4 -2 1 4 7 11 16 18 14 2
-2 -2 -2 -2 -2 -2 -2 -2 -2 -2 -2 -2 -2 -2 -2 -2 -2 -1 -1 -1 -1 -1 -1 -0 0 0 -0 -1 -0 0 0 -1 -1 -0 -0 -1 -1 -1 -1 -2 -2 -2 -2 -2 -2 -2 -1 -1 -2 -2 -2 -2 -2 -2 -2 -3 -3 -3 -4 -4 -5 -5 -5 -6 -6 -6 -6 -5 -5 -6 -6 -6 -6 -5 -5 -6 -7 -7 -6 -6 -6 -6 -6 -6 -5 -5 -5 -4 -4 -4 -4 -5 -7 -9 -9 -10 -10 -9 -6 0 10 17 18
-2 -2 -1 -2 -2 -2 -2 -2 -2 -2 -2 -2 -2 -2 -2 -2 -2 -2 -1 -1 -1 -1 -2 -1 -1 -0 -0 -0 -1 -0 -0 -1 -2 -2 -1 -1 -1 -2 -1 -1 -2 -2 -2 -1 -2 -2 -3 -2 -2 -2 -2 -2 -2 -2 -1 -2 -3 -3 -4 -4 -4 -4 -4 -4 -4 -5 -6 -7 -7 -7 -6 -5 -5 -4 -4 -5 -6 -6 -6 -6 -5 -5 -4 -4 -5 -6 -6 -5 -5 -5 -5 -6 -6 -8 -11 -13 -14 -16 -18 -16 -5 7 16
-1 -1 -1 -1 -1 -2 -2 -2 -2 -2 -2 -2 -1 -2 -2 -2 -1 -1 -2 -1 -1 -1 -2 -2 -1 -1 -0 -0 -0 -0 -1 -1 -1 -2 -3 -2 -2 -2 -2 -2 -2 -2 -2 -2 -2 -2 -3 -3 -3 -2 -2 -2 -2 -2 -2 -3 -3 -3 -3 -3 -3 -2 -3 -3 -3 -4 -6 -8 -9 -8 -7 -5 -4 -4 -4 -4 -5 -5 -6 -5 -5 -5 -4 -5 -6 -7 -6 -7 -7 -6 -6 -7 -7 -7 -6 -4 -5 -8 -13 -16 -9 3 12
-1 -1 -1 -1 -1 -1 -1 -2 -2 -2 -1 -1 -1 -1 -2 -2 -1 -1 -1 -1 -0 -0 -2 -3 -2 -1 -0 -1 -0 1 1 -0 -1 -1 -2 -3 -2 -2 -2 -3 -3 -3 -2 -3 -3 -2 -2 -2 -2 -2 -2 -2 -3 -3 -3 -3 -3 -2 -2 -2 -2 -2 -1 -2 -3 -3 -4 -5 -6 -7 -7 -6 -5 -4 -4 -4 -4 -4 -5 -5 -5 -5 -5 -6 -6 -6 -7 -8 -8 -7 -7 -8 -8 -5 5 10 10 6 2 -1 -1 3 7
-1 -1 -1 -1 -1 -1 -1 -1 -2 -1 -1 -1 -1 -1 -1 -1 -1 -1 -1 -1 0 1 0 -2 -3 -3 -1 -1 -1 -0 1 0 -1 -1 -1 -2 -3 -2 -1 -2 -3 -3 -3 -3 -3 -4 -3 -2 -2 -2 -2 -2 -3 -4 -4 -3 -3 -2 -2 -2 -2 -2 -1 -1 -1 -0 1 -0 -3 -5 -8 -7 -6 -4 -4 -4 -3 -3 -4 -4 -5 -6 -7 -7 -6 -5 -6 -6 -6 -6 -6 -7 -4 3 15 14 11 8 4 1 -1 -2 -2
-1 -1 -1 -1 -1 -1 -1 -1 -1 -1 -1 -1 -1 -0 -0 -0 -1 -1 -1 -1 -0 0 1 0 -2 -3 -4 -2 -1 -1 -1 -0 -1 -2 -2 -2 -2 -2 -3 -3 -3 -3 -3 -3 -3 -4 -4 -3 -3 -3 -4 -4 -3 -3 -4 -4 -3 -3 -3 -3 -3 -3 -2 -1 0 1 2 0 -2 -5 -7 -8 -7 -5 -5 -4 -3 -3 -3 -3 -4 -5 -6 -6 -6 -5 -4 -3 -3 -3 -4 -4 -2 3 12 12 10 6 -3 -5 -3 -0 -2
-1 -1 -1 -1 -1 -1 -1 -1 -1 -1 -1 -1 -1 -0 -0 -0 -0 -0 -1 -2 -1 -0 1 1 -0 -1 -3 -3 -2 -2 -1 -0 -1 -1 -3 -3 -3 -2 -2 -3 -4 -5 -5 -4 -3 -2 -3 -3 -3 -3 -3 -5 -5 -4 -3 -4 -4 -4 -4 -4 -4 -3 -3 -1 -0 0 0 -1 -2 -4 -6 -8 -8 -8 -6 -5 -4 -3 -3 -3 -3 -4 -5 -6 -6 -5 -3 -1 -1 -2 -2 -3 -4 -3 -0 1 5 7 2 -6 -4 2 4
-1 -1 -1 -1 -1 -1 -1 -1 -1 -1 -1 -1 -1 -0 -0 0 0 -0 -0 -2 -2 -2 -0 0 -0 -1 -2 -2 -2 -1 -2 -1 -1 -1 -2 -3 -4 -5 -4 -3 -3 -3 -5 -7 -5 -3 -1 -3 -3 -3 -2 -3 -5 -5 -4 -4 -4 -4 -4 -4 -3 -3 -3 -2 -1 -1 -1 -1 -2 -3 -4 -6 -8 -10 -10 -8 -7 -6 -4 -4 -4 -5 -6 -6 -6 -5 -3 -0 -0 -1 -2 -3 -5 -6 -6 -6 -1 4 6 1 1 4 5
-1 -1 -1 -1 -1 -1 -1 -1 -1 -1 -1 -1 -1 -0 -0 0 0 0 0 -1 -2 -2 -2 -0 0 -0 -1 -2 -2 -1 -1 -2 -2 -2 -3 -2 -2 -3 -6 -8 -7 -3 1 -2 -5 -6 -4 -4 -6 -7 -6 -5 -6 -7 -7 -6 -5 -5 -4 -3 -3 -3 -4 -3 -2 -1 -1 -2 -3 -4 -4 -5 -6 -8 -10 -10 -10 -10 -8 -7 -6 -6 -6 -6 -6 -5 -3 -1 0 -0 -1 -3 -5 -6 -6 -6 -6 -5 0 2 1 0 -0
-1 -1 -1 -1 -1 -1 -1 -1 -1 -1 -1 -1 -1 -1 -0 -0 0 0 0 0 -0 -1 -2 -1 -0 0 0 -1 -3 -2 -0 -1 -1 -2 -2 -4 -4 -3 1 -4 -8 -10 -5 -0 -1 -3 -5 -3 -4 -7 -9 -8 -7 -7 -8 -6 -6 -5 -5 -4 -4 -4 -4 -4 -3 -2 -2 -3 -4 -5 -4 -4 -5 -5 -6 -8 -9 -10 -10 -9 -8 -6 -6 -5 -5 -5 -4 -2 -1 -0 -0 -2 -4 -5 -5 -6 -9 -10 -6 -0 3 3 2
-1 -1 -1 -1 -1 -1 -1 -1 -1 -1 -1 -1 -1 -0 0 0 0 0 0 1 1 -0 -2 -2 -2 -2 -1 -0 -1 -2 -2 -0 -1 -2 -1 -0 -4 -7 -6 2 2 -4 -11 -8 -5 -4 -7 -5 -3 -3 -7 -8 -8 -8 -8 -7 -6 -5 -6 -5 -5 -5 -4 -4 -3 -2 -3 -4 -5 -6 -5 -4 -4 -4 -5 -5 -6 -7 -8 -9 -8 -7 -6 -6 -5 -5 -4 -3 -2 -1 -2 -3 -4 -3 -3 -5 -8 -9 -6 3 7 8 6
-1 -1 -1 -1 -1 -1 -1 -1 -1 -1 -1 -1 -1 -0 0 0 0 0 -0 -0 -0 -0 -1 -2 -3 -3 -5 -4 -1 0 -1 -1 -1 -2 -6 -2 1 -1 -9 -8 -2 3 0 -7 -8 -7 -8 -10 -8 -6 -7 -9 -9 -9 -9 -8 -6 -5 -4 -5 -5 -6 -5 -4 -4 -3 -3 -5 -6 -6 -3 -2 -3 -4 -4 -4 -4 -4 -4 -6 -7 -8 -7 -6 -5 -5 -4 -2 -2 -2 -3 -4 -3 -2 -2 -5 -5 -3 -1 2 2 2 5
-1 -0 -1 -1 -1 -1 -1 -1 -1 -1 -1 -1 -0 -0 0 0 0 0 -0 -1 -1 -2 -1 -3 -4 -4 -3 -5 -5 -3 1 -1 -1 -0 -2 -9 -7 -2 2 -6 -9 -7 1 -1 -3 -3 -0 -6 -8 -9 -8 -11 -11 -9 -9 -8 -6 -5 -3 -3 -5 -7 -7 -5 -4 -4 -5 -6 -6 -4 -1 -1 -1 -2 -3 -3 -2 -1 -0 -1 -3 -6 -8 -7 -7 -6 -4 -2 -1 -2 -3 -3 -2 -0 -1 -1 1 2 3 1 -0 -0 1
-1 -1 -0 -1 -1 -1 -1 -1 -1 -1 -1 -1 -0 -0 0 -0 -0 -0 0 -0 -1 -2 -2 -1 -3 -4 -4 -3 -4 -5 -1 -1 -3 -3 2 -4 -11 -13 -5 -2 -5 -9 -8 -4 -5 -3 5 4 0 -3 -2 -6 -8 -9 -7 -7 -7 -6 -4 -3 -5 -7 -8 -6 -6 -6 -7 -7 -6 -4 -1 -0 -0 -1 -2 -2 -1 -0 0 1 -0 -2 -4 -6 -7 -7 -7 -5 -4 -4 -4 -3 -2 -0 2 5 7 6 3 2 0 -1 -2
-1 -1 -1 -1 -1 -1 -1 -1 -1 -1 -1 -1 -0 -0 -0 -0 -0 -0 -0 0 -0 -1 -2 -1 -0 -1 -5 -4 -4 -4 -3 0 -2 -5 -3 1 -2 -8 -13 -8 -6 -7 -11 -6 -8 -11 -11 -1 -1 -3 -1 -1 -4 -7 -6 -6 -8 -9 -6 -5 -5 -6 -7 -7 -7 -8 -8 -8 -7 -5 -3 -1 -1 -0 -1 -1 -1 0 1 1 1 1 -0 -2 -4 -6 -7 -8 -8 -8 -6 -5 -3 1 11 13 10 5 -1 5 7 7 4
-1 -1 -1 -1 -1 -1 -1 -1 -1 -1 -1 -0 -0 -0 -0 -0 -0 -0 -1 -1 -0 -0 -2 -3 -1 0 -1 -4 -4 -3 -4 -1 0 -1 -6 -1 3 2 -8 -13 -10 -8 -13 -14 -10 -6 -11 -6 -1 -0 -6 -4 -5 -7 -6 -3 -5 -8 -8 -6 -5 -5 -5 -6 -6 -7 -7 -8 -8 -6 -4 -3 -3 -2 -1 -2 -2 -0 2 3 3 2 1 -1 -2 -4 -5 -5 -6 -6 -7 -6 -2 5 17 18 16 11 1 -1 2 7 11
-1 -1 -1 -1 -1 -1 -1 -1 -1 -1 -1 -1 -0 0 0 -0 -0 0 -0 -1 -0 -0 -0 -2 -3 -2 -0 -3 -4 -2 0 -1 -0 0 -4 -6 -2 4 6 -3 -8 -8 -7 -11 -15 -14 -1 -1 -0 -0 -4 -4 -8 -11 -13 -7 -6 -7 -8 -7 -6 -5 -5 -5 -5 -5 -5 -7 -7 -7 -5 -5 -5 -5 -4 -4 -4 -3 0 3 4 4 1 -1 -3 -4 -5 -6 -6 -5 -5 -5 -1 3 5 1 0 2 3 -2 -3 -1 5
-1 -1 -1 -1 -1 -1 -1 -1 -0 -0 -1 -1 -0 0 1 0 0 0 0 0 -0 0 0 -1 -2 -4 -2 -3 -5 -5 -1 1 2 2 3 -6 -7 -3 5 6 0 -8 -14 -9 -11 -16 -19 -5 -5 -12 -16 -3 -2 -8 -17 -13 -10 -9 -8 -8 -8 -7 -5 -5 -5 -4 -4 -5 -5 -5 -5 -7 -8 -7 -6 -5 -5 -3 -1 2 4 5 4 2 -0 -2 -4 -7 -7 -6 -4 -4 -3 -2 -4 -5 -5 -4 -3 -3 -1 2 5
-1 -1 -1 -1 -1 -1 -1 -0 -0 0 -0 -0 -0 -0 0 0 0 0 0 0 -0 -0 -0 0 -1 -3 -4 -2 -3 -5 -7 -2 0 2 6 5 -2 -7 -4 -0 1 1 2 3 3 -3 -18 -16 -13 -14 -25 -10 -1 1 -4 -8 -10 -9 -6 -6 -7 -8 -6 -6 -5 -5 -5 -5 -4 -3 -3 -6 -9 -11 -9 -6 -4 -2 0 2 3 4 4 3 1 -0 -2 -3 -3 -3 -4 -6 -4 -2 -2 -3 -4 -4 -3 -2 -1 0 3
-1 -1 -1 -1 -1 -1 -1 -0 -0 0 0 -0 -0 -0 -0 -0 -0 -0 -0 -0 -0 -1 -1 -1 -0 -1 -4 -4 -3 -3 -5 -4 -3 -1 -0 7 8 3 -5 -3 -0 0 -2 1 2 1 -2 -11 -19 -24 -27 -13 -7 -5 -3 -3 -6 -8 -8 -5 -4 -4 -6 -6 -5 -4 -6 -6 -5 -4 -4 -4 -7 -10 -10 -7 -5 -3 -0 2 3 3 2 1 0 -1 -2 -1 -2 -4 -7 -6 -4 -2 -3 -3 -3 -4 -4 -1 1 3 2
-1 -1 -1 -1 -1 -1 -1 -0 0 0 0 -0 -0 -0 -0 -0 -0 -0 -1 -0 -0 -1 -2 -2 -1 -0 -1 -4 -4 -4 -4 -3 -0 1 -3 -1 6 11 8 -0 -3 -1 1 -1 -5 -7 -4 3 -0 -14 -34 -22 -15 -13 -14 -7 -5 -5 -7 -7 -4 -2 -2 -5 -5 -5 -5 -5 -5 -5 -6 -4 -5 -7 -11 -8 -6 -5 -3 1 2 2 1 0 -1 -2 -2 -2 -2 -3 -5 -1 -1 -3 -4 -3 -3 -4 -5 -1 4 7 7
-1 -1 -1 -1 -1 -1 -1 -0 0 0 1 0 -0 -0 -0 -0 -0 -0 -0 -0 0 -0 -1 -2 -2 -1 1 -1 -3 -5 -5 -6 -3 1 4 -2 -2 3 10 7 1 -3 -3 -3 -5 -7 -9 -1 6 3 -18 -30 -26 -16 -8 -11 -10 -6 -2 -3 -4 -3 -3 -3 -4 -5 -6 -5 -4 -4 -6 -5 -4 -5 -9 -8 -7 -5 -4 -2 0 1 1 -0 -1 -2 -1 -1 -1 -1 -1 1 -0 -1 -2 -2 -4 -6 -8 -3 2 5 6
-1 -1 -1 -1 -1 -1 -1 -1 -0 0 0 0 -0 -1 -0 -0 -0 -0 -0 -0 0 1 0 -1 -2 -1 -0 -0 -1 -3 -5 -5 -5 -3 1 1 -1 -2 2 6 7 5 3 3 3 2 1 -1 -3 -1 4 -14 -32 -36 -14 -8 -7 -8 -7 -2 1 1 -3 -4 -4 -5 -7 -6 -4 -4 -6 -8 -6 -4 -4 -6 -6 -5 -4 -3 -1 -0 0 -0 -1 -1 1 0 -1 -2 -2 -1 -0 1 1 1 -2 -5 -6 -1 0 -1 -4
-1 -1 -1 -1 -1 -1 -1 -1 -0 0 0 -0 -1 -1 -0 -0 -0 -0 -1 -0 -0 -0 -0 -1 -1 -1 -1 -0 -1 -2 -4 -4 -3 -2 -2 -1 -1 -0 1 1 3 5 5 5 6 7 7 3 -1 -2 4 4 -11 -29 -44 -28 -13 -5 -8 -6 0 4 2 -2 -4 -5 -7 -7 -5 -3 -5 -9 -8 -6 -3 -3 -4 -4 -4 -3 -2 -0 1 1 2 2 3 -0 -3 -5 -6 -5 -2 1 3 3 1 -1 -2 1 2 0 -3
-1 -1 -1 -1 -1 -1 -1 -1 -0 0 0 -0 -1 -1 -1 -0 -0 -0 -1 -0 0 0 -1 -1 -1 -1 -0 -0 -0 -1 -3 -4 -3 -1 1 -1 -2 -1 4 1 -0 -0 3 4 5 6 7 7 7 6 3 4 3 -3 -22 -36 -29 -16 -13 -6 0 4 2 -1 -2 -3 -5 -6 -5 -4 -4 -7 -8 -8 -5 -3 -2 -2 -3 -4 -2 -0 2 3 5 5 4 -1 -4 -6 -8 -6 -3 -0 2 1 1 -0 -1 -0 4 8 11
Height
1579 1578 1577 1577 1576 1576 1576 1575 1574 1573 1573 1572 1571 1571 1570 1570 1569 1568 1568 1567 1567 1566 1566 1565 1564 1564 1563 1562 1561 1561 1560 1560 1559 1558 1557 1556 1556 1555 1554 1553 1551 1551 1550 1548 1547 1547 1547 1546 1546 1545 1544 1543 1542 1541 1541 1541 1540 1539 1538 1538 1537 1537 1536 1536 1536 1536 1536 1535 1535 1534 1533 1533 1533 1533 1532 1532 1532 1532 1531 1531 1531 1531 1531 1531 1531 1531 1530 1530 1530 1530 1530 1530 1530 1530 1530 1530 1530 1530 1530 1530 1530 1530 1530
1579 1578 1577 1577 1576 1576 1575 1575 1574 1573 1573 1572 1571 1571 1571 1570 1569 1569 1568 1568 1567 1566 1566 1565 1565 1564 1563 1563 1562 1561 1561 1560 1559 1558 1557 1556 1556 1555 1553 1552 1551 1550 1549 1548 1547 1546 1546 1546 1545 1544 1543 1543 1542 1541 1541 1540 1539 1538 1538 1537 1536 1536 1536 1536 1536 1535 1535 1535 1534 1534 1533 1532 1532 1532 1532 1531 1531 1531 1530 1530 1530 1530 1530 1529 1529 1529 1529 1529 1529 1529 1529 1529 1529 1529 1529 1529 1529 1529 1528 1528 1528 1528 1528
1579 1578 1577 1577 1576 1576 1575 1575 1574 1573 1573 1572 1572 1571 1571 1570 1569 1569 1568 1568 1567 1567 1566 1566 1565 1564 1564 1563 1562 1561 1561 1560 1559 1558 1557 1556 1555 1554 1553 1552 1551 1550 1549 1547 1546 1546 1546 1545 1544 1543 1543 1542 1541 1541 1540 1539 1539 1538 1537 1536 1536 1535 1535 1535 1535 1534 1534 1534 1533 1533 1533 1532 1531 1531 1531 1530 1530 1530 1529 1529 1529 1528 1528 1528 1528 1528 1528 1528 1527 1527 1527 1527 1527 1527 1528 1528 1527 1527 1527 1527 1527 1527 1527
1579 1578 1577 1577 1576 1576 1575 1575 1574 1574 1573 1572 1572 1571 1571 1570 1569 1569 1568 1568 1567 1567 1566 1566 1565 1564 1564 1563 1562 1561 1561 1560 1559 1558 1557 1556 1555 1554 1553 1552 1551 1550 1548 1547 1546 1545 1545 1544 1544 1543 1542 1541 1541 1540 1539 1539 1538 1537 1536 1536 1535 1535 1535 1534 1534 1533 1533 1533 1532 1532 1532 1531 1531 1531 1530 1529 1529 1528 1528 1527 1527 1527 1527 1526 1526 1526 1526 1526 1526 1526 1526 1526 1526 1526 1526 1526 1526 1526 1526 1526 1526 1526 1526
1579 1578 1577 1577 1576 1576 1576 1575 1574 1574 1573 1573 1572 1571 1571 1570 1570 1569 1568 1568 1567 1567 1566 1566 1565 1564 1563 1563 1562 1561 1561 1560 1559 1558 1557 1556 1555 1554 1553 1552 1551 1549 1548 1547 1546 1544 1543 1543 1543 1542 1541 1541 1540 1539 1539 1538 1537 1536 1536 1535 1535 1534 1534 1534 1533 1532 1532 1531 1531 1531 1531 1531 1530 1530 1529 1529 1528 1527 1527 1526 1526 1526 1525 1525 1525 1525 1525 1525 1525 1524 1524 1524 1524 1524 1524 1525 1525 1525 1525 1524 1524 1524 1524
1578 1578 1577 1577 1576 1576 1576 1575 1574 1574 1573 1573 1572 1571 1571 1570 1570 1569 1569 1568 1567 1566 1566 1565 1565 1564 1563 1562 1561 1561 1560 1559 1558 1557 1556 1556 1555 1554 1552 1551 1550 1549 1548 1547 1546 1544 1543 1543 1542 1541 1540 1540 1539 1538 1538 1537 1536 1536 1535 1534 1534 1534 1534 1533 1532 1532 1531 1531 1531 1531 1530 1530 1529 1529 1528 1528 1527 1526 1526 1525 1525 1525 1524 1524 1524 1524 1523 1523 1523 1523 1522 1522 1522 1522 1523 1523 1523 1523 1523 1523 1523 1522 1522
1578 1578 1577 1577 1576 1576 1576 1575 1574 1574 1573 1573 1572 1571 1571 1570 1570 1569 1569 1568 1567 1566 1566 1565 1564 1563 1562 1562 1561 1560 1560 1559 1558 1557 1556 1555 1554 1553 1552 1551 1550 1549 1548 1547 1546 1544 1543 1542 1541 1541 1540 1539 1538 1538 1537 1537 1536 1535 1535 1534 1533 1533 1533 1532 1532 1531 1531 1530 1530 1529 1529 1529 1528 1528 1527 1526 1526 1525 1525 1524 1524 1523 1523 1522 1522 1522 1522 1521 1521 1521 1521 1521 1521 1520 1521 1521 1521 1521 1521 1521 1521 1521 1520
1578 1578 1577 1577 1576 1576 1575 1575 1574 1574 1573 1573 1572 1571 1571 1570 1570 1569 1568 1568 1567 1566 1565 1565 1564 1563 1562 1561 1561 1560 1559 1558 1557 1556 1556 1555 1554 1553 1552 1551 1550 1549 1548 1546 1546 1544 1543 1542 1541 1540 1539 1539 1538 1537 1537 1536 1536 1535 1534 1533 1533 1532 1532 1532 1531 1531 1530 1529 1529 1528 1528 1527 1527 1527 1526 1525 1525 1524 1523 1523 1522 1522 1521 1521 1521 1520 1520 1520 1520 1520 1519 1519 1519 1519 1519 1519 1519 1519 1519 1520 1520 1519 1519
1578 1577 1577 1576 1576 1576 1575 1575 1574 1574 1573 1572 1572 1571 1571 1570 1569 1569 1568 1567 1566 1566 1565 1564 1563 1562 1561 1561 1560 1559 1558 1557 1556 1556 1555 1554 1553 1552 1551 1550 1549 1548 1547 1546 1545 1544 1543 1542 1541 1540 1539 1538 1538 1537 1536 1536 1535 1534 1534 1533 1532 1532 1531 1531 1530 1530 1529 1528 1528 1527 1527 1526 1526 1526 1525 1524 1523 1523 1522 1521 1521 1520 1520 1519 1519 1518 1518 1518 1518 1518 1517 1517 1518 1517 1517 1517 1516 1516 1517 1517 1517 1517 1517
1577 1577 1577 1576 1576 1576 1575 1574 1574 1573 1573 1572 1571 1571 1570 1570 1569 1568 1567 1567 1566 1565 1565 1564 1563 1562 1561 1560 1559 1558 1557 1556 1556 1555 1554 1553 1552 1551 1550 1549 1548 1547 1547 1546 1545 1544 1543 1542 1541 1540 1539 1538 1537 1537 1536 1536 1535 1534 1533 1533 1532 1531 1531 1530 1530 1529 1528 1527 1527 1526 1526 1525 1525 1524 1523 1523 1522 1521 1521 1520 1519 1519 1518 1518 1517 1516 1516 1516 1516 1516 1516 1516 1516 1516 1516 1515 1515 1515 1514 1514 1514 1514 1515
1577 1577 1576 1576 1576 1575 1575 1574 1573 1573 1572 1572 1571 1570 1570 1569 1568 1568 1567 1566 1566 1565 1564 1563 1562 1561 1560 1559 1558 1557 1556 1556 1555 1554 1553 1552 1551 1550 1549 1548 1547 1546 1546 1545 1544 1544 1543 1541 1541 1540 1539 1538 1537 1536 1536 1535 1534 1533 1532 1532 1531 1531 1530 1530 1529 1528 1527 1526 1526 1525 1525 1524 1523 1523 1522 1521 1521 1521 1520 1519 1518 1517 1516 1516 1515 1515 1514 1514 1514 1513 1513 1514 1514 1514 1514 1514 1513 1513 1513 1512 1512 1512 1512
1577 1577 1576 1576 1576 1575 1574 1574 1573 1572 1572 1571 1571 1570 1569 1568 1568 1567 1566 1566 1565 1564 1563 1562 1561 1561 1559 1558 1557 1556 1555 1554 1554 1553 1552 1551 1550 1549 1548 1547 1546 1546 1545 1544 1543 1542 1542 1541 1540 1539 1538 1537 1536 1536 1535 1534 1534 1533 1532 1531 1531 1530 1529 1529 1528 1527 1526 1526 1525 1524 1524 1523 1522 1521 1521 1520 1520 1519 1518 1517 1516 1516 1515 1514 1514 1513 1512 1512 1511 1511 1511 1511 1512 1512 1512 1512 1512 1511 1511 1511 1511 1510 1510
1577 1576 1576 1576 1575 1575 1574 1573 1573 1572 1571 1571 1570 1569 1569 1568 1567 1566 1566 1565 1564 1563 1562 1561 1561 1560 1558 1557 1556 1555 1554 1553 1552 1552 1551 1550 1549 1548 1547 1546 1545 1544 1543 1543 1542 1541 1540 1539 1538 1538 1537 1536 1536 1535 1534 1533 1533 1532 1531 1531 1530 1529 1529 1528 1527 1526 1525 1525 1524 1523 1522 1522 1521 1520 1520 1519 1518 1517 1517 1516 1515 1514 1513 1512 1512 1511 1511 1510 1510 1509 1509 1509 1509 1510 1510 1510 1510 1510 1509 1509 1509 1508 1508
1576 1576 1576 1575 1575 1574 1574 1573 1572 1571 1571 1570 1570 1569 1568 1567 1566 1566 1565 1564 1563 1562 1561 1560 1559 1558 1557 1556 1556 1554 1553 1552 1552 1551 1550 1549 1548 1547 1546 1545 1544 1543 1542 1541 1541 1539 1539 1538 1537 1536 1536 1535 1534 1534 1533 1532 1532 1531 1531 1530 1530 1529 1528 1527 1526 1525 1525 1524 1523 1522 1521 1520 1520 1519 1518 1517 1516 1516 1515 1514 1513 1513 1512 1511 1510 1510 1509 1508 1508 1507 1507 1507 1507 1507 1507 1507 1507 1507 1507 1507 1507 1506 1506
1576 1576 1575 1575 1574 1574 1573 1572 1572 1571 1571 1570 1569 1568 1568 1567 1566 1565 1564 1563 1562 1561 1560 1559 1558 1557 1556 1555 1555 1554 1553 1552 1551 1550 1549 1548 1547 1546 1546 1544 1543 1542 1541 1541 1539 1538 1538 1537 1536 1536 1535 1534 1533 1533 1532 1531 1531 1530 1530 1530 1529 1528 1527 1526 1525 1524 1524 1523 1522 1521 1520 1519 1518 1518 1517 1516 1515 1514 1513 1512 1512 1511 1510 1509 1509 1508 1507 1507 1506 1506 1505 1505 1505 1505 1505 1505 1505 1505 1505 1505 1505 1504 1504
1576 1575 1575 1574 1574 1573 1573 1572 1571 1571 1570 1569 1569 1568 1567 1566 1565 1564 1563 1562 1561 1560 1559 1558 1557 1556 1555 1554 1554 1553 1552 1551 1551 1550 1549 1548 1547 1546 1545 1544 1543 1542 1541 1540 1539 1538 1537 1536 1535 1535 1534 1533 1532 1532 1531 1531 1530 1529 1529 1529 1528 1527 1527 1526 1525 1524 1523 1522 1521 1520 1519 1518 1517 1516 1515 1514 1513 1512 1512 1511 1510 1509 1509 1508 1507 1506 1506 1505 1505 1504 1503 1503 1502 1502 1502 1502 1502 1502 1502 1502 1502 1502 1502
1575 1575 1574 1574 1573 1573 1572 1571 1571 1570 1569 1569 1568 1567 1566 1566 1565 1563 1562 1561 1560 1559 1558 1557 1556 1555 1554 1553 1552 1552 1551 1550 1550 1549 1548 1547 1546 1545 1544 1543 1542 1541 1540 1539 1538 1537 1536 1535 1534 1534 1533 1532 1531 1531 1530 1529 1529 1528 1528 1527 1526 1526 1526 1524 1523 1522 1521 1521 1520 1519 1518 1517 1516 1515 1514 1513 1512 1511 1510 1509 1508 1507 1507 1506 1505 1505 1504 1503 1503 1502 1501 1501 1500 1500 1500 1500 1500 1500 1500 1500 1500 1500 1500
1575 1574 1574 1573 1573 1572 1571 1571 1570 1570 1569 1568 1567 1566 1566 1565 1564 1563 1561 1561 1559 1558 1557 1556 1555 1554 1553 1552 1551 1551 1550 1549 1548 1547 1547 1546 1545 1544 1543 1542 1541 1540 1539 1538 1537 1536 1535 1534 1533 1533 1532 1531 1530 1529 1529 1528 1527 1527 1526 1526 1525 1525 1524 1523 1522 1521 1521 1520 1518 1517 1517 1516 1515 1514 1512 1511 1510 1510 1508 1507 1506 1506 1505 1504 1503 1502 1502 1501 1501 1500 1499 1499 1498 1498 1498 1497 1497 1497 1497 1497 1497 1497 1497
1574 1574 1573 1573 1572 1571 1571 1570 1570 1569 1568 1567 1566 1566 1565 1564 1563 1561 1561 1560 1558 1557 1556 1555 1554 1553 1552 1551 1551 1550 1549 1548 1547 1546 1546 1545 1544 1543 1542 1541 1540 1539 1538 1537 1536 1535 1534 1533 1532 1531 1531 1530 1529 1528 1527 1526 1526 1526 1525 1524 1523 1523 1522 1521 1520 1520 1519 1518 1517 1516 1515 1514 1513 1512 1511 1510 1509 1508 1507 1506 1505 1504 1503 1502 1501 1501 1500 1499 1498 1498 1497 1497 1496 1496 1495 1495 1495 1495 1495 1494 1494 1495 1495
1573 1573 1572 1572 1571 1571 1570 1569 1569 1568 1567 1566 1566 1565 1564 1563 1562 1561 1560 1559 1557 1556 1556 1555 1553 1552 1551 1551 1550 1549 1548 1547 1546 1545 1544 1543 1543 1542 1541 1540 1539 1538 1537 1536 1535 1534 1533 1532 1531 1531 1530 1529 1528 1527 1526 1525 1524 1524 1523 1522 1521 1521 1520 1519 1519 1518 1517 1516 1516 1515 1514 1513 1512 1511 1510 1509 1508 1507 1506 1505 1504 1503 1502 1501 1500 1499 1498 1497 1496 1496 1495 1495 1494 1494 1493 1493 1492 1492 1492 1492 1492 1492 1492
1572 1572 1571 1571 1570 1570 1569 1568 1568 1567 1566 1565 1564 1563 1562 1561 1561 1560 1559 1558 1556 1556 1555 1554 1553 1551 1551 1550 1549 1548 1547 1546 1545 1544 1543 1542 1541 1541 1540 1539 1538 1537 1536 1535 1534 1533 1532 1531 1530 1529 1528 1527 1526 1526 1525 1524 1523 1522 1521 1521 1520 1519 1518 1517 1517 1516 1516 1515 1514 1513 1512 1511 1510 1510 1508 1507 1506 1505 1504 1503 1502 1501 1500 1499 1498 1496 1496 1495 1494 1493 1493 1492 1492 1491 1491 1490 1490 1489 1489 1489 1489 1489 1489
1571 1571 1570 1570 1569 1569 1568 1567 1566 1566 1565 1564 1563 1562 1561 1560 1559 1558 1557 1556 1556 1555 1554 1553 1551 1551 1550 1549 1548 1547 1546 1545 1544 1543 1542 1541 1541 1539 1538 1537 1536 1536 1535 1534 1533 1532 1531 1530 1529 1528 1527 1526 1525 1524 1523 1522 1521 1521 1520 1519 1518 1517 1516 1516 1515 1515 1514 1514 1513 1512 1511 1510 1509 1508 1507 1506 1505 1504 1502 1501 1500 1499 1498 1497 1496 1495 1494 1493 1492 1491 1490 1490 1489 1488 1488 1487 1487 1486 1486 1486 1486 1486 1486
1570 1570 1569 1569 1568 1567 1567 1566 1565 1565 1564 1563 1562 1561 1560 1559 1558 1557 1556 1555 1554 1553 1552 1551 1551 1550 1549 1548 1547 1546 1545 1544 1542 1541 1541 1540 1539 1538 1537 1536 1535 1534 1533 1532 1531 1530 1529 1528 1527 1526 1525 1524 1523 1522 1521 1521 1520 1519 1518 1517 1516 1516 1515 1514 1513 1513 1512 1512 1511 1510 1509 1508 1507 1506 1505 1504 1503 1502 1501 1500 1498 1497 1496 1495 1494 1493 1491 1491 1490 1489 1488 1487 1486 1486 1485 1485 1484 1483 1483 1483 1483 1483 1483
1569 1569 1568 1567 1567 1566 1566 1565 1564 1563 1562 1561 1560 1559 1558 1557 1556 1556 1555 1554 1553 1552 1551 1550 1549 1548 1547 1546 1546 1544 1543 1542 1541 1540 1539 1538 1537 1537 1536 1535 1534 1533 1532 1531 1530 1529 1528 1527 1526 1525 1524 1522 1521 1521 1520 1519 1518 1517 1516 1516 1515 1514 1513 1512 1512 1511 1511 1510 1509 1508 1507 1506 1506 1505 1504 1503 1502 1501 1499 1498 1497 1496 1494 1493 1492 1491 1490 1488 1487 1486 1486 1485 1484 1483 1482 1482 1481 1481 1481 1480 1480 1480 1480
1568 1567 1567 1566 1566 1565 1564 1563 1562 1561 1561 1560 1559 1558 1557 1556 1555 1554 1553 1552 1551 1550 1549 1549 1548 1547 1546 1545 1544 1543 1542 1541 1540 1539 1538 1537 1536 1535 1534 1534 1532 1531 1531 1530 1529 1528 1526 1526 1524 1523 1522 1521 1520 1519 1518 1517 1516 1516 1515 1514 1513 1512 1511 1511 1510 1510 1509 1508 1507 1507 1506 1505 1504 1504 1502 1501 1500 1499 1497 1496 1495 1494 1492 1491 1490 1489 1487 1486 1485 1484 1483 1482 1481 1481 1480 1479 1479 1479 1478 1478 1477 1477 1477
1567 1566 1566 1565 1564 1563 1562 1562 1561 1560 1559 1558 1557 1556 1555 1554 1553 1552 1551 1550 1549 1549 1548 1547 1546 1545 1544 1543 1542 1542 1541 1540 1539 1538 1537 1536 1535 1534 1533 1532 1531 1530 1529 1528 1527 1526 1525 1524 1523 1522 1521 1519 1518 1517 1516 1516 1515 1514 1514 1513 1512 1511 1510 1509 1508 1508 1507 1506 1506 1505 1504 1504 1503 1502 1501 1500 1498 1497 1496 1494 1493 1492 1491 1489 1488 1486 1485 1484 1483 1482 1481 1480 1479 1478 1477 1477 1476 1476 1476 1475 1475 1475 1474
1565 1565 1564 1563 1563 1562 1561 1560 1559 1558 1557 1556 1555 1554 1553 1552 1551 1551 1550 1548 1548 1547 1546 1545 1544 1543 1542 1541 1541 1540 1539 1539 1538 1537 1536 1535 1534 1532 1531 1531 1530 1529 1527 1526 1526 1525 1524 1522 1521 1520 1519 1518 1516 1516 1515 1514 1513 1513 1512 1511 1510 1509 1508 1507 1506 1506 1505 1505 1504 1503 1502 1502 1501 1500 1499 1498 1496 1495 1494 1493 1491 1490 1488 1487 1486 1484 1483 1482 1481 1480 1479 1477 1476 1476 1475 1475 1474 1473 1473 1472 1472 1472 1471
1564 1563 1563 1562 1561 1560 1559 1558 1557 1556 1556 1554 1553 1552 1552 1551 1550 1549 1548 1547 1546 1545 1544 1543 1542 1541 1541 1540 1539 1538 1538 1537 1536 1535 1535 1533 1532 1531 1530 1529 1528 1527 1526 1525 1524 1523 1522 1521 1520 1519 1518 1516 1515 1514 1513 1512 1512 1511 1510 1510 1509 1508 1507 1506 1505 1504 1504 1503 1502 1501 1501 1500 1499 1498 1497 1496 1495 1493 1492 1491 1489 1488 1486 1485 1483 1482 1481 1480 1478 1477 1476 1475 1474 1473 1472 1472 1471 1471 1470 1470 1469 1469 1469
1563 1562 1561 1561 1560 1559 1558 1557 1556 1555 1554 1553 1552 1551 1550 1549 1548 1547 1546 1546 1545 1544 1543 1542 1541 1540 1539 1538 1537 1536 1536 1535 1534 1534 1533 1532 1531 1530 1528 1527 1526 1526 1524 1523 1522 1521 1520 1519 1518 1517 1516 1515 1514 1513 1511 1511 1510 1510 1509 1508 1507 1506 1506 1505 1504 1503 1502 1501 1501 1500 1499 1498 1497 1496 1495 1494 1492 1491 1490 1489 1487 1486 1484 1483 1481 1480 1479 1477 1476 1475 1474 1472 1471 1470 1470 1469 1469 1468 1467 1467 1467 1466 1466
1561 1561 1560 1559 1558 1557 1556 1556 1554 1553 1552 1551 1551 1550 1548 1548 1547 1546 1545 1544 1543 1542 1541 1540 1539 1539 1538 1537 1536 1535 1534 1533 1532 1532 1531 1530 1529 1528 1527 1526 1525 1524 1523 1521 1521 1520 1518 1517 1516 1516 1515 1514 1512 1511 1510 1509 1508 1508 1507 1506 1506 1505 1504 1503 1502 1501 1501 1500 1499 1498 1497 1496 1495 1494 1493 1492 1491 1490 1488 1487 1486 1484 1482 1481 1479 1478 1476 1475 1474 1472 1471 1470 1469 1468 1467 1466 1466 1465 1464 1464 1464 1463 1463
1560 1559 1559 1558 1557 1556 1555 1554 1553 1552 1551 1550 1549 1548 1547 1546 1545 1545 1544 1543 1542 1541 1540 1539 1538 1537 1536 1535 1534 1533 1532 1531 1531 1530 1529 1528 1527 1526 1526 1524 1523 1522 1521 1520 1519 1518 1517 1516 1515 1514 1513 1512 1511 1510 1509 1508 1507 1506 1506 1505 1504 1503 1503 1502 1501 1500 1499 1498 1497 1496 1495 1494 1493 1492 1491 1490 1488 1487 1486 1485 1484 1482 1481 1479 1477 1476 1474 1473 1472 1471 1469 1468 1466 1465 1465 1464 1463 1462 1461 1461 1460 1460 1460
1559 1558 1557 1556 1556 1555 1554 1553 1551 1551 1550 1549 1548 1547 1546 1545 1544 1543 1542 1541 1540 1539 1538 1537 1536 1536 1535 1534 1533 1532 1531 1530 1529 1528 1527 1526 1526 1525 1524 1523 1521 1521 1520 1518 1517 1516 1515 1514 1513 1512 1511 1511 1510 1509 1507 1506 1506 1505 1504 1503 1503 1502 1501 1500 1499 1498 1497 1496 1495 1494 1493 1492 1491 1490 1489 1487 1486 1485 1484 1483 1481 1480 1478 1477 1475 1474 1472 1471 1470 1468 1467 1465 1464 1463 1462 1461 1460 1459 1458 1457 1456 1456 1456
1557 1557 1556 1555 1554 1553 1552 1551 1550 1549 1548 1547 1546 1546 1545 1544 1543 1542 1541 1540 1539 1538 1537 1536 1535 1534 1533 1532 1531 1531 1530 1529 1527 1526 1525 1525 1524 1523 1522 1521 1520 1519 1518 1517 1516 1515 1514 1513 1512 1511 1510 1509 1508 1507 1506 1505 1504 1503 1502 1502 1501 1500 1500 1499 1498 1497 1496 1495 1494 1492 1491 1490 1489 1488 1486 1485 1484 1483 1481 1481 1479 1478 1476 1475 1473 1472 1470 1468 1467 1466 1464 1463 1461 1460 1459 1459 1458 1457 1456 1456 1455 1453 1452
1556 1555 1555 1554 1553 1552 1551 1550 1549 1548 1547 1546 1545 1545 1544 1543 1542 1541 1540 1539 1538 1537 1536 1535 1534 1533 1532 1531 1530 1529 1528 1527 1526 1525 1524 1523 1522 1521 1521 1520 1519 1518 1516 1516 1515 1513 1512 1511 1511 1510 1509 1508 1507 1506 1505 1504 1503 1502 1501 1500 1499 1499 1498 1497 1496 1495 1494 1493 1492 1491 1489 1488 1487 1486 1484 1483 1482 1481 1479 1478 1477 1476 1474 1473 1471 1469 1468 1466 1465 1463 1461 1460 1459 1458 1457 1456 1455 1455 1454 1453 1453 1452 1451
1555 1554 1553 1552 1551 1551 1550 1549 1548 1547 1546 1545 1544 1543 1542 1541 1541 1540 1539 1538 1537 1536 1535 1534 1533 1532 1531 1530 1529 1528 1527 1526 1525 1524 1523 1521 1521 1520 1519 1518 1517 1516 1515 1514 1513 1512 1511 1510 1509 1508 1507 1506 1506 1505 1504 1503 1502 1501 1500 1499 1498 1497 1496 1496 1495 1494 1493 1491 1490 1489 1488 1486 1485 1484 1482 1481 1480 1478 1477 1476 1475 1473 1472 1471 1469 1467 1466 1464 1462 1461 1459 1458 1456 1455 1454 1453 1452 1451 1451 1450 1450 1450 1449
1554 1553 1552 1551 1550 1549 1548 1547 1546 1546 1545 1544 1543 1542 1541 1540 1540 1539 1538 1537 1536 1535 1534 1533 1532 1531 1530 1528 1527 1526 1525 1524 1523 1522 1521 1520 1519 1518 1518 1517 1516 1515 1514 1513 1512 1511 1510 1509 1508 1507 1506 1505 1504 1503 1502 1501 1501 1500 1498 1497 1496 1496 1495 1494 1493 1492 1491 1490 1488 1487 1486 1485 1483 1482 1480 1479 1477 1476 1475 1474 1472 1471 1470 1468 1467 1465 1463 1462 1460 1458 1457 1455 1454 1452 1451 1450 1448 1447 1447 1446 1446 1446 1446
1552 1551 1551 1550 1549 1548 1547 1546 1545 1544 1543 1542 1541 1541 1540 1539 1538 1537 1536 1536 1535 1534 1533 1532 1531 1530 1529 1527 1526 1525 1524 1523 1522 1521 1520 1519 1518 1517 1516 1516 1515 1513 1512 1511 1511 1510 1509 1508 1507 1506 1505 1504 1503 1502 1501 1501 1500 1498 1497 1496 1495 1494 1493 1492 1491 1490 1489 1488 1486 1485 1484 1483 1481 1480 1478 1477 1476 1474 1473 1471 1470 1469 1467 1466 1464 1463 1461 1459 1458 1456 1454 1453 1451 1450 1449 1447 1446 1445 1444 1442 1442 1442 1442
1551 1550 1549 1548 1547 1546 1546 1545 1544 1543 1542 1541 1540 1539 1538 1537 1537 1536 1536 1535 1534 1532 1531 1531 1530 1529 1528 1526 1525 1524 1523 1522 1521 1520 1519 1518 1517 1516 1515 1514 1513 1512 1511 1510 1509 1508 1507 1506 1506 1505 1504 1503 1502 1501 1500 1499 1498 1497 1496 1495 1494 1493 1491 1490 1489 1488 1486 1485 1484 1483 1482 1481 1479 1478 1476 1475 1474 1472 1471 1469 1468 1466 1465 1463 1462 1461 1459 1457 1455 1453 1452 1450 1449 1448 1447 1446 1445 1443 1442 1441 1440 1439 1439
1549 1548 1548 1547 1546 1545 1544 1543 1542 1541 1541 1540 1539 1538 1537 1536 1536 1535 1534 1533 1532 1531 1530 1529 1528 1527 1526 1525 1524 1523 1522 1521 1520 1518 1517 1516 1516 1515 1514 1513 1512 1511 1510 1509 1508 1507 1506 1505 1504 1503 1502 1502 1501 1500 1499 1498 1497 1496 1495 1494 1493 1491 1490 1489 1487 1486 1484 1483 1482 1481 1480 1479 1477 1476 1474 1473 1471 1470 1468 1467 1466 1464 1462 1461 1459 1458 1456 1454 1452 1451 1449 1448 1446 1446 1445 1444 1443 1442 1441 1440 1438 1437 1436
1548 1547 1546 1546 1545 1544 1543 1542 1541 1540 1539 1538 1537 1536 1536 1535 1534 1533 1533 1532 1531 1530 1529 1528 1527 1526 1525 1524 1523 1521 1521 1520 1518 1517 1516 1515 1514 1513 1512 1512 1511 1510 1509 1508 1507 1506 1505 1504 1503 1502 1501 1501 1500 1499 1497 1497 1496 1495 1494 1493 1491 1490 1489 1487 1486 1484 1483 1481 1480 1479 1478 1476 1475 1474 1472 1471 1469 1468 1466 1465 1463 1461 1460 1458 1456 1455 1454 1452 1450 1449 1447 1446 1445 1443 1442 1441 1440 1439 1438 1437 1436 1435 1434
1546 1546 1545 1544 1543 1542 1541 1541 1540 1539 1538 1537 1536 1535 1534 1533 1533 1532 1531 1531 1530 1529 1528 1527 1526 1525 1523 1522 1521 1521 1519 1518 1517 1516 1515 1514 1513 1512 1511 1510 1509 1508 1507 1506 1506 1505 1504 1503 1502 1501 1500 1499 1498 1497 1496 1495 1494 1493 1492 1491 1490 1489 1488 1486 1485 1483 1482 1480 1478 1477 1476 1474 1473 1471 1470 1468 1467 1465 1464 1462 1461 1459 1457 1455 1453 1452 1451 1450 1448 1446 1445 1444 1442 1441 1439 1437 1436 1435 1434 1433 1432 1432 1431
1545 1544 1543 1543 1542 1541 1540 1539 1539 1538 1537 1536 1535 1534 1533 1532 1532 1531 1530 1530 1529 1528 1527 1526 1524 1523 1522 1521 1520 1519 1518 1517 1516 1515 1513 1512 1511 1511 1510 1509 1508 1507 1506 1505 1504 1503 1502 1501 1501 1500 1499 1497 1496 1496 1495 1494 1493 1492 1491 1490 1488 1487 1486 1485 1483 1482 1480 1478 1476 1475 1473 1472 1471 1469 1468 1466 1465 1463 1461 1460 1458 1456 1454 1452 1451 1450 1448 1447 1446 1445 1443 1442 1440 1438 1435 1433 1432 1431 1431 1431 1430 1430 1429
1543 1543 1542 1541 1541 1540 1539 1538 1537 1536 1536 1535 1534 1533 1532 1531 1531 1530 1529 1528 1527 1526 1526 1525 1523 1522 1521 1520 1519 1518 1516 1515 1514 1513 1512 1511 1510 1509 1508 1507 1506 1505 1504 1503 1502 1501 1501 1500 1499 1498 1497 1496 1495 1494 1493 1492 1491 1490 1489 1488 1486 1485 1484 1483 1481 1480 1478 1477 1475 1473 1471 1470 1468 1467 1465 1464 1462 1460 1459 1457 1455 1453 1452 1450 1449 1447 1446 1445 1444 1443 1441 1440 1438 1436 1433 1431 1429 1428 1428 1428 1428 1426 1425
1542 1541 1541 1540 1539 1538 1537 1537 1536 1535 1534 1534 1533 1532 1531 1530 1530 1529 1528 1527 1526 1525 1524 1524 1523 1521 1520 1519 1518 1516 1515 1514 1513 1511 1510 1509 1508 1507 1506 1506 1504 1503 1503 1502 1501 1500 1499 1499 1498 1497 1496 1495 1494 1493 1492 1491 1490 1488 1487 1486 1485 1483 1482 1481 1480 1478 1476 1475 1473 1471 1470 1468 1466 1464 1463 1461 1459 1457 1456 1454 1452 1451 1449 1448 1446 1445 1444 1443 1442 1441 1439 1438 1436 1434 1432 1430 1427 1425 1425 1425 1424 1423 1422
1540 1540 1539 1538 1538 1537 1536 1535 1535 1534 1533 1532 1531 1531 1530 1529 1528 1527 1527 1526 1525 1524 1523 1522 1521 1521 1520 1518 1517 1516 1514 1513 1512 1510 1509 1507 1506 1506 1505 1504 1503 1501 1501 1500 1500 1499 1498 1497 1496 1496 1495 1494 1493 1491 1491 1489 1488 1487 1486 1484 1483 1482 1480 1479 1478 1476 1475 1473 1471 1470 1468 1466 1464 1462 1460 1458 1456 1454 1453 1451 1450 1448 1447 1446 1444 1443 1441 1440 1439 1438 1437 1436 1434 1432 1431 1428 1426 1424 1422 1422 1421 1421 1420
1539 1538 1537 1537 1536 1535 1535 1534 1533 1532 1532 1531 1530 1529 1529 1528 1527 1526 1526 1525 1524 1523 1522 1521 1520 1519 1518 1517 1516 1515 1513 1512 1511 1509 1508 1506 1505 1504 1502 1502 1501 1501 1500 1498 1497 1497 1496 1495 1494 1494 1493 1492 1491 1490 1489 1488 1486 1485 1484 1482 1481 1480 1478 1477 1476 1475 1473 1471 1469 1467 1466 1464 1462 1460 1458 1456 1454 1452 1450 1449 1447 1446 1445 1443 1442 1441 1439 1438 1436 1435 1434 1433 1432 1430 1429 1427 1425 1423 1421 1420 1419 1418 1418
1537 1537 1536 1536 1535 1534 1533 1532 1532 1531 1530 1530 1529 1528 1527 1527 1526 1525 1524 1523 1522 1521 1521 1520 1519 1518 1517 1516 1515 1514 1513 1511 1510 1508 1506 1505 1504 1503 1501 1500 1499 1499 1498 1497 1496 1494 1494 1493 1492 1491 1491 1490 1489 1488 1487 1486 1485 1483 1482 1481 1479 1478 1477 1475 1474 1473 1471 1469 1467 1466 1464 1462 1460 1458 1456 1455 1452 1450 1448 1446 1445 1444 1443 1441 1440 1438 1437 1436 1434 1433 1431 1430 1429 1428 1426 1425 1423 1422 1420 1417 1416 1415 1415
1536 1536 1535 1534 1533 1532 1532 1531 1531 1530 1529 1528 1528 1527 1526 1526 1525 1524 1523 1522 1521 1521 1520 1519 1518 1516 1516 1515 1514 1513 1512 1511 1509 1507 1506 1503 1501 1501 1501 1500 1498 1496 1496 1495 1494 1493 1492 1491 1490 1489 1489 1488 1487 1486 1486 1485 1483 1482 1481 1479 1477 1476 1475 1474 1472 1471 1469 1467 1466 1464 1462 1460 1458 1456 1455 1453 1451 1449 1446 1445 1443 1441 1441 1439 1438 1436 1435 1433 1432 1430 1429 1427 1426 1425 1424 1423 1421 1420 1418 1416 1414 1412 1411
1535 1534 1533 1533 1532 1531 1531 1530 1529 1528 1528 1527 1526 1526 1525 1525 1524 1523 1522 1521 1520 1519 1518 1517 1516 1516 1514 1513 1512 1512 1511 1509 1508 1506 1505 1503 1500 1497 1497 1497 1496 1495 1493 1493 1492 1491 1490 1490 1489 1488 1487 1486 1486 1485 1484 1483 1481 1480 1479 1477 1476 1474 1473 1472 1470 1469 1467 1466 1464 1462 1460 1458 1457 1455 1453 1451 1450 1447 1445 1443 1441 1440 1438 1437 1436 1434 1433 1431 1429 1428 1426 1425 1424 1423 1422 1421 1419 1417 1415 1413 1412 1410 1409
1533 1532 1532 1531 1531 1530 1529 1528 1528 1527 1526 1526 1525 1525 1524 1523 1522 1522 1521 1520 1519 1518 1517 1516 1515 1515 1514 1512 1511 1511 1510 1508 1507 1506 1503 1502 1501 1497 1493 1492 1493 1493 1492 1491 1491 1490 1488 1488 1487 1486 1486 1485 1484 1483 1482 1481 1480 1479 1477 1476 1474 1472 1471 1470 1468 1467 1465 1464 1462 1461 1459 1457 1455 1453 1451 1450 1448 1446 1444 1442 1440 1438 1437 1435 1434 1432 1431 1429 1427 1425 1424 1422 1421 1421 1420 1418 1416 1414 1411 1410 1410 1409 1407
1531 1531 1530 1530 1529 1528 1527 1527 1526 1526 1525 1525 1524 1523 1523 1522 1521 1521 1520 1519 1518 1517 1516 1515 1513 1513 1513 1511 1510 1509 1509 1508 1506 1505 1503 1501 1501 1500 1497 1492 1490 1490 1490 1490 1489 1489 1488 1486 1486 1485 1484 1484 1483 1482 1481 1480 1478 1477 1476 1474 1472 1471 1469 1468 1466 1465 1463 1462 1460 1458 1457 1455 1453 1451 1450 1448 1446 1444 1442 1440 1438 1437 1435 1434 1432 1430 1428 1427 1425 1423 1422 1421 1420 1419 1417 1416 1414 1412 1410 1407 1406 1406 1405
1530 1529 1529 1528 1527 1526 1526 1525 1525 1524 1524 1523 1522 1522 1521 1521 1520 1519 1518 1518 1517 1516 1515 1514 1513 1511 1511 1511 1509 1508 1508 1507 1506 1505 1504 1501 1500 1499 1499 1496 1491 1488 1486 1484 1483 1485 1487 1486 1485 1484 1483 1482 1481 1480 1479 1477 1476 1475 1474 1472 1471 1470 1468 1466 1465 1464 1462 1460 1458 1456 1455 1453 1451 1450 1448 1446 1443 1441 1440 1438 1436 1435 1433 1432 1430 1429 1427 1426 1424 1422 1421 1419 1418 1416 1414 1411 1410 1409 1408 1406 1404 1403 1402
1528 1528 1527 1526 1526 1525 1524 1524 1523 1523 1522 1522 1521 1521 1520 1519 1519 1518 1517 1516 1516 1515 1514 1513 1512 1511 1510 1509 1508 1507 1506 1506 1506 1504 1503 1502 1499 1497 1496 1497 1496 1493 1489 1486 1481 1478 1482 1484 1483 1482 1481 1481 1480 1478 1477 1476 1474 1473 1472 1471 1469 1468 1466 1465 1464 1462 1460 1458 1456 1455 1453 1451 1449 1447 1446 1443 1441 1439 1437 1436 1434 1433 1432 1430 1429 1427 1426 1424 1422 1421 1419 1418 1416 1414 1412 1410 1408 1406 1405 1404 1403 1402 1400
1527 1526 1526 1525 1524 1523 1523 1522 1522 1521 1521 1521 1520 1519 1519 1518 1517 1517 1516 1515 1514 1514 1513 1511 1511 1510 1509 1507 1507 1506 1505 1505 1505 1504 1503 1502 1501 1499 1496 1496 1496 1495 1494 1493 1489 1482 1478 1480 1480 1479 1478 1478 1477 1476 1476 1475 1473 1471 1470 1469 1467 1466 1465 1463 1462 1461 1459 1457 1455 1453 1451 1449 1447 1445 1443 1441 1439 1437 1435 1433 1432 1431 1431 1429 1427 1426 1424 1422 1421 1419 1418 1416 1414 1413 1411 1408 1406 1405 1403 1403 1401 1400 1399
1525 1525 1524 1523 1522 1522 1521 1521 1520 1520 1519 1519 1519 1518 1517 1517 1516 1516 1515 1514 1513 1512 1512 1511 1510 1509 1508 1506 1506 1505 1504 1504 1504 1503 1502 1501 1501 1501 1499 1495 1492 1491 1491 1491 1491 1489 1484 1480 1477 1476 1475 1476 1475 1474 1473 1472 1471 1469 1468 1467 1466 1464 1463 1462 1460 1459 1457 1456 1454 1452 1450 1447 1445 1443 1441 1439 1437 1435 1433 1431 1430 1429 1428 1427 1426 1424 1423 1421 1420 1418 1416 1414 1412 1411 1409 1407 1405 1403 1401 1401 1400 1398 1396
1523 1523 1522 1521 1521 1520 1520 1519 1519 1518 1518 1517 1517 1516 1516 1515 1515 1514 1514 1513 1512 1511 1511 1510 1509 1508 1507 1506 1505 1503 1503 1502 1503 1503 1502 1501 1500 1499 1499 1498 1496 1493 1491 1488 1487 1486 1485 1483 1479 1474 1471 1474 1475 1472 1469 1469 1469 1467 1466 1464 1463 1462 1461 1460 1459 1457 1456 1454 1451 1450 1448 1446 1444 1441 1439 1437 1435 1433 1431 1430 1428 1427 1426 1425 1424 1422 1421 1420 1418 1416 1414 1412 1411 1409 1407 1405 1403 1401 1399 1398 1398 1397 1395
1522 1521 1521 1520 1519 1519 1518 1518 1517 1517 1516 1516 1516 1515 1514 1514 1513 1513 1512 1511 1511 1510 1509 1508 1507 1506 1506 1505 1504 1503 1502 1501 1501 1501 1501 1501 1499 1498 1497 1497 1497 1497 1496 1493 1489 1484 1482 1483 1483 1479 1471 1471 1473 1473 1469 1466 1466 1465 1464 1463 1461 1461 1460 1458 1457 1455 1454 1451 1450 1448 1446 1444 1442 1440 1438 1435 1433 1431 1429 1427 1426 1425 1424 1423 1422 1421 1419 1418 1416 1415 1413 1412 1410 1408 1406 1403 1401 1399 1397 1396 1395 1394 1393
1520 1519 1519 1518 1518 1517 1517 1516 1516 1516 1515 1515 1514 1513 1513 1512 1512 1511 1511 1510 1509 1508 1508 1507 1506 1505 1504 1504 1503 1502 1501 1500 1499 1499 1499 1499 1498 1497 1496 1495 1494 1494 1493 1492 1491 1488 1484 1481 1481 1480 1474 1468 1467 1469 1470 1466 1464 1462 1462 1461 1460 1459 1458 1456 1455 1453 1451 1450 1448 1446 1444 1442 1441 1439 1436 1434 1431 1429 1427 1426 1424 1423 1422 1421 1420 1419 1418 1416 1416 1414 1413 1411 1409 1406 1404 1402 1400 1398 1396 1396 1394 1392 1391
1518 1518 1517 1516 1516 1516 1515 1515 1515 1514 1514 1513 1512 1512 1511 1511 1510 1510 1509 1508 1508 1507 1506 1505 1505 1504 1503 1502 1501 1500 1499 1498 1498 1498 1497 1496 1496 1496 1495 1494 1493 1492 1491 1490 1489 1489 1487 1485 1482 1479 1477 1472 1465 1462 1464 1465 1463 1461 1459 1458 1458 1457 1456 1455 1453 1451 1449 1448 1446 1444 1442 1441 1439 1437 1435 1432 1430 1427 1425 1424 1422 1421 1421 1420 1419 1418 1416 1416 1414 1413 1411 1410 1407 1405 1402 1400 1398 1396 1396 1395 1394 1392 1391
1516 1516 1515 1515 1514 1514 1514 1513 1513 1512 1512 1511 1511 1510 1510 1509 1509 1508 1508 1507 1506 1506 1505 1504 1503 1503 1502 1501 1500 1499 1498 1497 1496 1496 1496 1495 1493 1493 1494 1493 1491 1491 1490 1489 1488 1487 1487 1486 1484 1482 1480 1477 1471 1464 1459 1459 1460 1460 1458 1456 1456 1455 1454 1453 1451 1450 1448 1446 1444 1443 1441 1439 1437 1435 1433 1431 1428 1426 1424 1422 1421 1420 1419 1418 1417 1416 1415 1414 1412 1411 1409 1407 1405 1402 1401 1398 1396 1395 1394 1393 1392 1392 1391
1515 1514 1514 1513 1513 1512 1512 1511 1511 1511 1510 1510 1509 1509 1508 1508 1507 1507 1506 1505 1505 1504 1504 1503 1502 1501 1501 1500 1499 1498 1497 1496 1496 1495 1495 1494 1492 1491 1491 1491 1490 1489 1488 1487 1486 1485 1484 1483 1482 1481 1481 1478 1475 1470 1463 1458 1456 1456 1455 1455 1454 1453 1451 1450 1449 1448 1446 1444 1442 1441 1439 1437 1436 1434 1431 1429 1427 1425 1422 1421 1420 1418 1418 1417 1416 1415 1414 1413 1411 1409 1407 1405 1403 1401 1399 1397 1395 1394 1392 1391 1390 1388 1387